Regional Weather Roundup
Issued by NWS Wakefield, VA

Home | Current Version | Previous Version | Graphics & Text | Print | Product List | Glossary On
Versions: 1 2 3 4 5 6 7 8 9 10 11 12 13 14 15 16 17 18 19 20 21 22 23 24 25 26 27 28 29 30 31 32 33 34 35 36 37 38 39 40 41 42 43 44 45 46 47 48 49 50
001
ASUS41 KAKQ 281215
RWRAKQ

REGIONAL WEATHER ROUNDUP
NATIONAL WEATHER SERVICE WAKEFIELD VA
800 AM EDT FRI JUL 28 2017

Note: "fair" indicates few or no clouds below 12,000 feet with no
significant weather and/or obstructions to visibility. * = Denotes
station may not report precipitation (e.g., rain,snow,etc.),
thunder or fog.

VAZ042-051-052>054-056-281300-
NORTHERN VIRGINIA

CITY           SKY/WX    TMP DP  RH WIND       PRES   REMARKS
WASH NATIONAL  PTSUNNY   78  74  87 NW7       29.83S
DULLES         PTSUNNY   73  68  84 NW6       29.85R
FORT BELVOIR   PTSUNNY   77  69  77 NW6       29.83S
QUANTICO       CLOUDY    76  73  91 NW3       29.84S
FREDERICKSBRG* CLOUDY    74  74 100 CALM      29.83S
STAFFORD*      CLOUDY    73  73 100 CALM      29.87F
WARRENTON      CLOUDY    73  70  88 CALM      29.84S FOG
CULPEPER*      CLOUDY    72  72  99 CALM      29.85S
MANASSAS*      CLOUDY    74  71  91 CALM      29.85R
LEESBURG*      CLOUDY    73  72  94 W5        29.86S
WINCHESTER     CLOUDY    70  68  94 CALM      29.86S
FRONT ROYAL*   CLOUDY    70  70 100 CALM      29.86R
LURAY*         CLOUDY    70  70 100 E3        29.87R FOG
$$

VAZ048-049-060>072-079>083-281300-
CENTRAL AND SOUTH CENTRAL VIRGINIA

CITY           SKY/WX    TMP DP  RH WIND       PRES   REMARKS
RICHMOND       MOSUNNY   77  71  82 W6        29.84S
CHESTERFIELD*  PTSUNNY   77  72  84 W8        29.85S
PETERSBURG*    CLOUDY    74  70  87 CALM      29.85S
HANOVER        SUNNY     76  69  79 MISG      29.85S
TAPPAHANNOCK*  MOSUNNY   76  68  77 W3        29.84F
QUINTON*       FAIR      74  73  98 CALM      29.83F
CHARLOTTSVILLE CLOUDY    77  70  79 CALM      29.86R
GORDONSVILLE*  CLOUDY    73  72  98 CALM      29.85R
ORANGE*        PTSUNNY   72  70  94 SW5       29.85R
LOUISA*        CLOUDY    72  70  94 SW5       29.86R
BUMPASS*       CLOUDY    72  72 100 SW8       29.85R
FARMVILLE*     LGT RAIN  74  72  93 CALM      29.85F
CREWE*         CLOUDY    74  70  87 CALM      29.86S
FORT PICKETT*  PTSUNNY  N/A N/A N/A W6        29.87R
CHASE CITY*    FAIR      73  73 100 CALM      29.87S
CLARKSVILLE*   CLOUDY    73  73 100 CALM      29.87R
SOUTH HILL*    CLOUDY    75  75  99 W3        29.92R
LAWRENCEVILLE* FAIR      74  74  97 SW3       29.86R
EMPORIA*       CLOUDY    73  72  94 SE5       29.87R
$$

VAZ088>098-281300-
SOUTHEAST VIRGINIA

CITY           SKY/WX    TMP DP  RH WIND       PRES   REMARKS
NORFOLK        CLOUDY    76  73  91 S9        29.85S
VIRGINIA BEACH CLOUDY    74  71  91 S7        29.85S
NORFOLK NAVAL  CLOUDY    77  73  87 SW12      29.87R
WEST POINT*    CLOUDY    77  71  82 W6        29.85S
SALUDA*        CLOUDY    75  73  94 CALM      29.83F
NEWPORT NEWS   CLOUDY    77  72  84 SW8       29.84S
LANGLEY AFB    CLOUDY    76  74  93 S9        29.84S
FORT EUSTIS    CLOUDY    77  72  85 S3        29.82S
WILLIAMSBURG*  CLOUDY    79  73  83 CALM      29.85F
HR EXEC AP*    CLOUDY    73  70  88 S6        29.85R
FRANKLIN*      CLOUDY    75  73  94 SW3       29.86S
US460-WAKEFLD  MOSUNNY   75  74  96 S3        29.86R FOG
$$

VAZ020-022-025-037-045-281300-
WEST CENTRAL AND SOUTHWEST VIRGINIA

CITY           SKY/WX    TMP DP  RH WIND       PRES   REMARKS
STAUNTON*      CLOUDY    71  69  93 CALM      29.91S
WAYNESBORO*    CLOUDY    71  70  97 CALM      29.90F
HOT SPRINGS VA FOG       64  63  94 CALM      30.01R VSB<1/4
LYNCHBURG      CLOUDY    72  70  93 CALM      29.88S
DANVILLE       CLOUDY    73  73 100 SW5       29.88S FOG
SOUTH BOSTON*  CLOUDY    74  73  95 CALM      29.87R
MARTINSVILLE   CLOUDY    71  70  96 CALM      29.92R
ROANOKE        CLOUDY    73  72  96 N3        29.91S
BLACKSBURG     CLOUDY    69  68  96 CALM      29.98R FOG
DUBLIN*        PTSUNNY   72  67  84 W3        29.96S
MARION*        CLOUDY    70  66  88 SW7       30.00F FOG
HILLSVILLE*    CLOUDY    68  64  86 CALM      29.97F
RICHLANDS*     LGT RAIN  67  63  86 SW3       29.98F
WISE*          CLOUDY    70  70 100 SW6       29.98F FOG
ABINGDON*      CLOUDY    72  72 100 CALM      29.96S FOG
$$

MDZ021>025-VAZ099-100-281300-
SOUTHERN MARYLAND AND THE DELMARVA PENINSULA

CITY           SKY/WX    TMP DP  RH WIND       PRES   REMARKS
PATUXENT RIVER MOSUNNY   77  73  87 W7        29.82S
BAY BRIDGE APT CLOUDY    77  75  94 E7        29.82S
LEONARDTOWN    SUNNY     75  72  88 W5        29.84S
DOVER          MOSUNNY   75  75 100 CALM      29.82S
GEORGETOWN     MOSUNNY   76  71  85 CALM      29.84S
EASTON         PTSUNNY   75  73  94 CALM      29.86S
CAMBRIDGE      SUNNY     75  72  88 CALM      29.83R
SALISBURY      SUNNY     76  73  91 CALM      29.83S
OCEAN CITY     PTSUNNY   76  73  91 S3        29.84S
WALLOPS ISLAND PTSUNNY   76  75  97 S6        29.84S
ACCOMACK*      CLOUDY    76  74  93 S5        29.84S
$$

NCZ012>017-030>032-281300-
NORTH CENTRAL AND EASTERN NORTH CAROLINA

CITY           SKY/WX    TMP DP  RH WIND       PRES   REMARKS
ROANOKE RAPIDS PTSUNNY   73  73 100 CALM      29.86S
RALEIGH        CLOUDY    78  74  87 SW7       29.88S
ELIZABETH CITY RAIN      75  74  96 S8        29.88R FOG
AHOSKIE*       HVY RAIN  71  70  98 CALM      29.88S VSB 3/4
EDENTON*       CLOUDY    78  74  88 CALM      29.87F
CURRITUCK*     RAIN     N/A N/A N/A E3        29.89R VSB 3/4
KILL DEVIL HLS LGT RAIN  77  73  85 CALM      29.87S
MANTEO         CLOUDY    77  73  87 W6        29.88S
CAPE HATTERAS  PTSUNNY   81  77  88 SW9       29.89F
TARBORO*       NOT AVBL
GOLDSBORO      CLOUDY    76  76 100 SW8       29.87F
WASHINGTON     CLOUDY    76  73  90 SW8       29.89R
GREENVILLE     CLOUDY    77  73  88 SW9       29.90S
NEW BERN       CLOUDY    76  75  97 SW5       29.91R
WILMINGTON     PTSUNNY   77  76  96 SW3       29.90F
$$

VAZ048-281300-
ELSEWHERE

CITY           SKY/WX    TMP DP  RH WIND       PRES   REMARKS
HARRISBURG PA  FOG       73  73 100 NE5       29.85S VSB 1
BALTIMORE      CLOUDY    77  75  93 NE7       29.83R
ANNAPOLIS      MOSUNNY   80  79  96 NE6       29.82S
ANDREWS AFB    PTSUNNY   77  73  88 N3        29.82S
PHILADELPHIA   CLOUDY    74  70  87 NE7       29.85S FOG
HENDERSON NC   CLOUDY    75  72  89 SW8       29.87F
GREENSBORO     PTSUNNY   75  74  96 SW7       29.89S
ROCKY MOUNT    CLOUDY    77  75  93 SW7       29.87S
$$

VAZ100-281300-
MARINE

STATION/POSITION TIME  TEMP    WIND        PRES    WAVE   SWELL
                       AIR SEA DIR/SP/G            HT/PER HT/PER
                 (UTC) (F)     (DEG/KT/KT) (MB)    (FT/S) (FT/S)
BRANDYWINE LGT   1142   76      40/  2/  4 1010.7R
CAPE MAY NJ      1148   78 76   80/  1/  2 1009.8S
LEWES DE         1148   76 74  350/  2/  2 1010.0R
15NM E FENWICK I 1150   74 75  220/ 10/ 12 1010.9R   3/ 6   3/ 6
OCEAN-CITY-INLET 1148   74 74  200/  4/  6 1010.7S
WACHAPREAGUE VA  1148   77 80  200/  5/  6 1010.4R
THOMAS POINT MD  1200   78 81   40/  3/  4   N/A
COVE POINT MD    1148   76     280/  4/  7 1010.4S
SOLOMONS ISLAND  1142   79 83  260/  5/  7   N/A
BISHOPS HEAD MD  1148   77 79  240/  4/  6 1010.0R
PINEY POINT MD   1148          330/  5/  6   N/A
CAMBRIDGE MD     1148   79 83              1010.6F
LEWISETTA VA     1148   75 82  270/  4/  5 1009.8F
RAPPAHANNOCK LGT 1148          220/ 12/ 14 1010.9R
YORK RVR RNG VA  1148   77     240/  6/  8 1010.9R
YORKTOWN VA      1148   75 82  220/  5/  6 1010.1S
DOMINION TERM VA 1148   76     210/ 10/ 12 1010.8R
KIPTOPEKE VA     1142      77  210/ 10/ 12   N/A
CHES BAY BRIDGE  1148   75 78  210/ 10/ 12 1010.7R
CAPE HENRY VA    1148   74     210/  6/ 10   N/A
WILLOUBY STN VA  1148   76     210/ 12/ 14 1010.6R
S CRANEY ISL VA  1148   76     210/  9/ 11 1010.7R
CAPE HENRY BUOY  1130      72                N/A     3/ 8
64NM E OF VA BCH 1150   74 76  220/ 16/ 19 1012.3R   4/ 5   2/ 8
DUCK PIER NC     1148   75 62  300/  4/  5 1011.3F
44100 DUCK FRF   1135      73                N/A     3/ 8
44056 DUCK FRF   1200      67                N/A     2/ 8
OREGON INLET NC  1142   80 79  220/ 13/ 16 1011.7R
HATTERAS NC      1148   79 80  230/  6/  9 1012.0F
DIAMOND SHLS NC  1150   81 83  240/ 16/ 17 1012.1F   3/ 8   2/ 8
CAPE LOOKOUT NC  1100   80     240/  7/ 10 1012.5R
$$




USA.gov is the U.S. government's official web portal to all federal, state and local government web resources and services.